Location: ????????????
(60.7040°N, 46.9002°E)
Time: 09:08:03
(UTC+00:00)

Daily predictions for brighter satellites

Satellite Brightness Start Highest point End
(mag) Time Altitude Azimuth Time Altitude Azimuth Time Altitude Azimuth
CENTAUR R/B 3.1 14:45:02 10° WNW 14:52:17 78° NNE 15:00:41 10° ESE
Cosmos 1633 Rocket 3.0 14:51:26 10° S 14:55:45 68° E 15:00:07 10° NNE
Nadezhda 4 Rocket 4.3 14:49:41 10° N 14:55:45 46° ENE 15:01:49 10° SE
Envisat 4.2 14:51:07 10° S 14:56:03 48° W 15:01:00 10° NNW
Cosmos 1867 4.0 14:51:29 10° W 14:56:54 57° N 15:02:18 10° ENE
USA 229 DEB 3.9 14:50:33 10° SW 14:57:03 58° SE 15:03:57 10° ENE
USA 229 3.9 14:50:40 10° SSW 14:57:10 58° SE 15:04:02 10° ENE
YAOGAN 1 2.6 14:52:58 10° SSE 14:57:18 84° ENE 15:01:41 10° NNW
Cosmos 1725 Rocket 4.0 14:53:41 10° S 14:59:54 86° ESE 15:06:12 10° NNE
SKYMED 2 3.7 14:58:18 10° NNE 15:02:36 52° E 15:06:51 10° S
USA 186 2.9 15:00:49 10° ESE 15:03:04 21° ENE 15:05:28 10° N
Cosmos 1898 Rocket 3.7 14:58:38 10° NW 15:03:51 80° WSW 15:09:02 10° SSE
Meteor 1-18 Rocket 4.3 14:58:12 10° NNW 15:04:09 69° ENE 15:09:58 10° SSE
NOSS 3-1 (A) 3.9 14:58:47 10° SSW 15:04:19 47° SE 15:10:49 10° ENE
HJ-1C 3.7 15:01:32 10° SE 15:04:42 44° ENE 15:07:54 10° N
Aureole 2 Rocket 1.8 15:02:27 10° SSW 15:05:09 66° ESE 15:07:59 10° NE
Cosmos 1666 Rocket 3.7 15:02:33 10° SSW 15:07:02 87° WNW 15:11:33 10° NNE
Cosmos 1933 Rocket 3.9 15:03:27 10° SSE 15:07:37 43° E 15:11:46 10° NNE
Cosmos 2219 3.3 15:02:13 10° NW 15:07:58 68° NE 15:13:44 10° SE
ATLAS 3B R/B 2.8 15:01:51 10° WNW 15:08:30 71° NNE 15:15:19 10° E
Cosmos 405 2.9 15:04:58 10° NNW 15:08:33 75° ENE 15:12:06 10° SSE
Cosmos 1844 Rocket 4.0 15:05:07 10° WNW 15:10:05 30° N 15:15:06 10° NE
Cosmos 2298 Rocket 4.2 15:06:22 10° NNW 15:11:40 56° NE 15:16:55 10° SE
Cosmos 1464 Rocket 4.4 15:06:26 10° SSE 15:12:18 41° E 15:18:11 10° NNE
Cosmos 2263 Rocket 3.3 15:10:01 10° NW 15:15:04 32° NNE 15:20:08 10° ENE
Meteor 2-4 Rocket 4.0 15:11:47 10° NNW 15:17:36 53° ENE 15:23:25 10° SE
FREGAT/IRIS 3.2 15:17:41 10° SE 15:20:09 30° ENE 15:22:38 10° N
CRYOSAT 2 4.4 15:19:38 10° S 15:24:32 83° E 15:29:30 10° N
Cosmos 2369 Rocket 2.2 15:19:14 10° SSW 15:24:53 73° SE 15:30:37 10° NE
Meteor 1-4 Rocket 4.2 15:22:13 10° N 15:24:54 19° NE 15:26:45 14° E
SL-08 RB Rocket 4.3 15:21:06 10° ESE 15:25:10 35° ENE 15:29:15 10° N
Sich 1 4.0 15:21:11 10° SW 15:25:20 50° WNW 15:29:32 10° N
Okean 1 3.2 15:22:30 10° NNW 15:26:34 81° ENE 15:30:33 10° SSE
Lacrosse 5 rocket 2.4 15:22:49 10° W 15:27:08 45° SSW 15:31:32 10° SE
SPOT 3 Rocket 4.0 15:22:43 10° SE 15:27:35 42° ENE 15:32:30 10° NNW
Cosmos 2297 4.2 15:22:24 10° WSW 15:27:59 60° NW 15:33:37 10° NE
Cosmos 2150 Rocket 4.1 15:22:42 10° NNW 15:28:05 64° NE 15:33:31 10° SE
NOSS 2-3 (C) 4.3 15:23:57 10° SSW 15:28:22 45° SE 15:33:48 10° ENE
Cosmos 2221 Rocket 3.8 15:24:33 10° N 15:29:00 49° ENE 15:33:22 10° SE
MOS 1 4.3 15:24:47 10° SE 15:30:22 64° ENE 15:35:58 10° NNW
SJ-11-01 4.2 15:25:45 10° SSE 15:30:24 69° ENE 15:35:05 10° NNW
Cosmos 1125 Rocket 3.9 15:25:31 10° NNW 15:30:43 49° NE 15:35:46 11° ESE
ARGOS 3.3 15:27:01 10° SE 15:32:19 55° ENE 15:37:38 10° NNW
Meteor 1-19 Rocket 4.3 15:27:41 10° NNW 15:33:35 84° ENE 15:39:16 10° SSE
CZ-4B R/B 4.4 15:33:06 10° NNW 15:35:07 15° NW 15:37:10 10° W
ADEOS Rocket 3.7 15:27:34 10° NNE 15:35:15 58° E 15:42:48 10° S
Cosmos 2034 Rocket 4.3 15:29:40 10° SSE 15:35:22 42° E 15:41:06 10° NNE
MONITOR-E 4.1 15:33:14 10° SE 15:35:49 44° ENE 15:38:26 10° N
Cosmos 389 Rocket 3.3 15:34:38 10° N 15:37:59 33° ENE 15:40:37 14° ESE
Ariane Rocket 3.0 15:34:16 10° SSE 15:39:22 83° ENE 15:44:32 10° NNW
CZ-2C R/B 3.3 15:36:28 10° SE 15:42:06 61° ENE 15:47:31 10° NNW
CSL-04 Rocket 4.5 15:36:53 10° S 15:42:17 57° WSW 15:47:40 10° NNW
Cosmos 921 Rocket 3.6 15:37:50 10° SW 15:42:20 62° NW 15:46:48 10° NNE
Cosmos 2233 Rocket 4.2 15:36:19 10° SSW 15:42:31 78° WNW 15:48:49 10° NNE
Okean 1-7 3.3 15:38:56 10° NNW 15:43:15 71° W 15:47:34 10° S
USA 238 DEB 4.1 15:36:34 10° WNW 15:43:35 71° SW 15:50:53 10° SE
USA 238 4.1 15:36:40 10° WNW 15:43:41 71° SW 15:50:58 10° SE
Meteor 1-25 Rocket 4.2 15:38:14 10° S 15:43:47 63° E 15:49:19 10° NNE
Orbus 7S? 4.2 15:38:08 10° SW 15:44:00 41° SSE 15:46:07 19° ESE
Cosmos 1092 Rocket 4.1 15:38:24 10° N 15:44:42 59° ENE 15:50:59 10° SSE
Cosmos 1602 4.0 15:41:30 10° SSE 15:45:11 44° E 15:48:52 10° NNE
Terra 3.8 15:44:01 11° ENE 15:45:54 13° NE 15:48:09 10° N
Cosmos 1470 Rocket 3.8 15:43:20 10° SSW 15:47:45 76° WNW 15:52:14 10° NNE
Cosmos 1500 4.4 15:46:10 16° ESE 15:47:53 21° E 15:50:50 10° NE
SL-24 DEB 4.4 15:43:54 10° SSE 15:48:23 49° ENE 15:52:53 10° N
COSMO-SKYMED 1 2.9 15:46:25 10° NNE 15:50:46 70° WNW 15:55:06 10° SSW
Cosmos 1937 Rocket 4.3 15:46:20 10° NW 15:51:28 54° WSW 15:56:32 10° S
Resurs 1-3 4.0 15:50:36 14° SE 15:54:03 42° ENE 15:58:13 10° N
NOSS 3-1 (C) 3.5 15:48:17 10° WSW 15:54:15 83° SSE 16:00:59 12° ENE
Spot 2 Rocket 4.5 15:53:34 19° E 15:56:16 30° NE 16:00:40 10° N
Cosmos 2263 4.2 15:55:51 10° SW 16:01:39 87° SE 16:07:25 10° NE
DMSP B5D1-3 4.4 15:56:39 10° NNE 16:01:49 72° ESE 16:06:58 10° S
Cosmos 2297 Rocket 2.3 15:57:41 10° NW 16:03:24 84° SW 16:09:01 10° SE
SJ 16-02 3.2 15:59:30 10° NW 16:03:28 33° WSW 16:07:25 10° S
Cosmos 1943 Rocket 2.5 15:58:17 10° SW 16:03:49 68° NW 16:09:22 10° NE
Meteor 1-13 Rocket 4.2 16:01:19 10° NNW 16:07:16 76° ENE 16:13:02 10° SSE
SeaSat 1 4.0 16:03:23 10° NE 16:07:44 31° NNW 16:12:03 10° W
GP-B 3.7 16:07:47 21° SE 16:10:09 35° ENE 16:14:13 10° N
Cosmos 1072 Rocket 4.5 16:05:12 10° S 16:11:32 85° ESE 16:17:49 10° NNE
Cosmos 372 Rocket 4.3 16:08:00 10° NW 16:13:16 71° WSW 16:18:29 10° SSE
CZ-4 R/B 4.2 16:10:48 10° SW 16:14:03 22° W 16:17:17 10° NW
SJ-6B 2.7 16:12:43 10° SSE 16:16:31 88° WSW 16:20:25 10° NNW
Cosmos 1513 Rocket 4.4 16:11:02 10° S 16:17:12 86° E 16:23:30 10° NNE
Cosmos 2278 Rocket 3.6 16:12:37 10° WNW 16:17:39 31° NNW 16:22:42 10° NE
Cosmos 1340 4.1 16:15:10 10° SW 16:18:45 40° WNW 16:22:21 10° N
Cosmos 1869 Rocket 3.4 16:16:11 10° S 16:20:34 77° E 16:24:56 10° NNE
Lacrosse 4 Rocket 2.7 16:16:51 10° W 16:20:56 37° NNW 16:24:22 14° NE
Cosmos 1515 4.3 16:17:18 10° NNW 16:21:03 57° W 16:24:46 10° S
Resurs 01 Rocket 1.8 16:19:38 25° SE 16:21:56 52° ENE 16:26:15 10° NNW
Cosmos 1975 Rocket 4.0 16:18:15 10° N 16:22:01 28° ENE 16:22:34 27° ENE
H-2A R/B 2.4 16:16:36 10° S 16:22:03 73° WSW 16:27:33 10° NNW
Cosmos 192 4.2 16:17:13 10° SSW 16:22:06 67° ESE 16:26:59 10° NE
Cosmos 2227 Rocket 2.4 16:17:00 10° NW 16:22:41 73° SW 16:27:35 14° SSE
Okean 3 3.6 16:19:17 10° NNW 16:23:31 73° WSW 16:27:41 10° S
Lacrosse 5 2.9 16:21:03 10° SSW 16:25:12 26° SE 16:25:43 25° SE
Cosmos 1656 Rocket 3.6 16:20:41 10° SW 16:26:17 90° ESE 16:32:00 10° NE
Meteor 1-5 Rocket 4.4 16:21:32 10° SSE 16:26:52 48° E 16:32:24 10° NNE
Cosmos 1733 Rocket 3.5 16:25:07 24° SE 16:27:11 38° E 16:31:14 10° NNE
USA 234 3.4 16:23:22 24° ESE 16:27:30 66° S 16:34:02 10° W
NOSS 2-3 (E) 3.9 16:24:41 10° SW 16:29:27 78° SSE 16:33:33 20° ENE
Cosmos 2082 3.7 16:23:46 10° NW 16:29:33 90° WSW 16:33:19 23° SE
Cosmos 1346 Rocket 4.2 16:26:31 10° SW 16:30:17 41° WNW 16:34:02 10° N
Meteor 1-23 Rocket 4.2 16:25:04 10° NNW 16:30:43 68° ENE 16:34:53 19° SSE
Cosmos 1627 Rocket 4.4 16:24:46 10° NNW 16:31:01 84° ENE 16:37:12 10° SSE
Cosmos 1378 Rocket 3.5 16:27:45 10° N 16:32:03 61° ENE 16:33:57 31° SE
Meteor 1-20 Rocket 4.5 16:26:48 10° SSW 16:32:20 70° WNW 16:38:00 10° NNE
Cosmos 468 Rocket 3.9 16:27:34 10° SSW 16:32:53 77° ESE 16:38:14 10° NE
USA 186 2.7 16:31:26 12° S 16:33:55 42° W 16:36:51 10° NNW
ERS-1 Rocket 3.9 16:33:56 28° ENE 16:35:06 31° NE 16:39:30 10° N
Cosmos 1441 Rocket 3.5 16:35:55 43° E 16:35:55 43° E 16:39:42 10° NNE
NOSS 3-2 (C) 4.3 16:30:30 10° WNW 16:37:29 62° SW 16:43:31 19° SE
Cosmos 489 Rocket 4.4 16:31:28 10° SSW 16:37:49 83° ESE 16:44:09 10° NE
NOSS 5 (C) 4.1 16:34:56 10° WNW 16:37:54 64° NNE 16:38:09 61° NE
Cosmos 1900 4.2 16:35:19 10° NW 16:40:15 90° ENE 16:42:16 36° SE
Cosmos 1867 3.8 16:35:40 10° WNW 16:41:08 63° NNE 16:43:33 33° E
Landsat 7 4.4 16:41:31 34° E 16:42:24 38° ENE 16:46:48 10° N
CENTAUR R/B 3.3 16:35:43 10° WNW 16:43:14 68° SW 16:49:07 22° SE
NOSS 2-3 (D) 3.9 16:39:52 10° WSW 16:44:39 84° SSE 16:48:12 25° ENE
Cosmos 1437 Rocket 3.5 16:42:58 10° N 16:46:38 36° ENE 16:46:38 36° ENE
Cosmos 2026 Rocket 4.0 16:40:57 10° NNW 16:47:12 85° WSW 16:53:19 10° S
Cosmos 1814 Rocket 4.0 16:42:53 10° S 16:47:51 52° ESE 16:52:52 10° NE
USA 229 DEB 3.8 16:41:08 10° WSW 16:47:56 80° NNW 16:52:55 22° ENE
USA 229 3.8 16:41:15 10° WSW 16:48:02 80° NNW 16:53:00 22° ENE
MetOp-A 4.2 16:44:21 13° SSE 16:49:09 80° WSW 16:54:34 10° NNW
Cosmos 1763 Rocket 3.4 16:46:24 10° SSW 16:51:41 85° ESE 16:57:03 10° NE
Cosmos 2266 Rocket 4.2 16:45:45 10° N 16:51:55 51° ENE 16:54:17 35° ESE
Cosmos 2219 4.4 16:46:37 10° NW 16:51:58 41° WSW 16:57:17 10° S
Cosmos 841 Rocket 3.4 16:47:01 10° SSW 16:52:05 59° ESE 16:57:13 10° NE
GENESIS II 4.3 16:48:22 10° WNW 16:52:30 74° NNE 16:53:13 57° E
ARGOS Delta rocket 4.2 16:48:21 10° S 16:52:44 58° W 16:57:20 10° NNW
NOSS 3-1 (A) 3.6 16:48:47 10° WSW 16:54:54 85° NNW 16:59:49 22° ENE
Cosmos 1844 Rocket 3.8 16:50:21 10° NW 16:55:29 33° NNE 16:57:52 24° ENE
Okean 2 3.9 16:52:35 10° N 16:56:20 41° NE 16:56:20 41° NE
CZ-2C R/B 3.0 16:51:46 10° NNE 16:56:58 40° E 16:57:04 40° E
Cosmos 2227 4.3 16:52:54 10° NW 16:58:32 62° NE 17:00:19 42° ESE
ATLAS 3B R/B 2.7 16:52:42 10° WNW 16:59:22 72° SW 17:02:41 33° SE
Cosmos 2263 Rocket 2.4 16:54:27 10° NW 17:00:06 57° NE 17:01:50 41° E
Meteor 1-4 Rocket 2.5 16:56:45 10° NNW 17:00:27 84° WSW 17:00:58 64° S
CZ-2C R/B 3.7 16:56:33 10° NNE 17:01:11 65° ESE 17:05:53 10° S
SL-08 RB Rocket 4.4 16:57:54 11° S 17:02:08 51° W 17:06:32 10° NNW
Cosmos 1536 3.8 17:05:20 35° NE 17:05:20 35° NE 17:07:55 10° NNE
Cosmos 2208 Rocket 3.9 16:59:33 10° SSW 17:04:56 75° ESE 17:10:15 10° NE
Cosmos 1674 Rocket 4.0 17:00:53 10° NNW 17:05:19 62° W 17:08:02 23° S
Lacrosse 5 rocket 3.4 17:02:07 10° W 17:05:40 22° SW 17:07:21 18° S
SPOT 3 Rocket 4.3 17:01:51 10° S 17:06:57 53° WSW 17:12:07 10° NNW
Cosmos 2369 Rocket 3.2 17:03:51 10° WSW 17:09:20 45° NNW 17:14:51 10° NE
Cosmos 389 Rocket 4.0 17:09:23 10° NNW 17:12:45 37° W 17:14:31 22° SSW
ARGOS 4.4 17:07:41 10° SSW 17:12:48 41° W 17:17:57 10° NNW
Cosmos 1125 Rocket 4.2 17:07:46 10° NW 17:12:55 51° WSW 17:16:05 22° S
Cosmos 540 Rocket 3.3 17:10:01 10° SSW 17:15:08 74° ESE 17:20:19 10° NE
Cosmos 220 Rocket 4.2 17:11:09 10° SW 17:15:25 67° NW 17:19:41 10° NNE
SPOT 5 3.4 17:15:15 44° ENE 17:15:31 44° ENE 17:20:14 10° N
Cosmos 1842 4.4 17:13:24 10° N 17:15:56 32° NNE 17:15:56 32° NNE
Cosmos 1570 Rocket 4.0 17:12:45 10° SW 17:18:02 85° WNW 17:23:24 10° NNE
NOSS 2-3 (C) 4.1 17:13:55 10° WSW 17:18:52 80° NNW 17:21:28 35° ENE
APEX 4.3 17:14:30 10° SSW 17:20:08 72° SE 17:26:57 10° NE
ADEOS Rocket 4.2 17:13:15 10° NNE 17:20:47 57° WNW 17:28:16 10° SW
IGS 5A 3.8 17:22:31 54° NNE 17:22:31 54° NNE 17:26:07 10° NNW
Terra 2.6 17:22:54 38° NE 17:22:54 38° NE 17:26:58 10° N
CARTOSAT-1 4.3 17:23:39 40° NE 17:23:39 40° NE 17:27:05 10° N
Cosmos 1500 3.6 17:20:43 21° SSW 17:23:08 64° WNW 17:27:01 10° N
Cosmos 1655 Rocket 4.0 17:17:37 10° NNW 17:24:05 89° ENE 17:27:03 35° SSE
Cosmos 2142 Rocket 4.3 17:25:09 15° S 17:30:25 79° E 17:36:43 10° NNE
Meteor 1-11 Rocket 3.6 17:25:57 10° SSW 17:31:32 88° WNW 17:37:06 10° NNE
Spot 2 Rocket 3.5 17:33:45 55° S 17:34:53 79° WSW 17:40:02 10° NNW
Cosmos 2279 Rocket 3.8 17:33:55 35° S 17:36:43 75° E 17:42:56 10° NNE
DMSP B5D2-2 3.9 17:33:43 10° NNE 17:39:01 80° ESE 17:40:02 59° S
Cosmos 1378 4.2 17:38:27 10° NNW 17:41:00 41° NNW 17:41:00 41° NNW
Cosmos 1634 Rocket 4.1 17:37:03 10° SSW 17:43:24 75° WNW 17:49:47 10° NNE
SPOT 1/Viking Rocket 3.4 17:43:24 78° SE 17:43:45 84° ENE 17:48:58 10° NNW
SeaSat 1 4.4 17:41:44 16° NE 17:44:18 24° N 17:48:12 10° NW
NOSS 3-1 (C) 3.8 17:39:08 10° W 17:45:28 71° N 17:48:23 39° ENE
Cosmos 1844 4.4 17:40:30 10° NW 17:45:45 40° NNE 17:46:34 38° NE
Meteor 1-21 4.1 17:40:21 10° NNW 17:46:08 76° ENE 17:46:40 70° ESE
Cosmos 2297 Rocket 4.1 17:42:17 10° NW 17:46:48 25° WSW 17:50:52 12° SSW
GP-B 4.1 17:45:11 25° SW 17:47:26 45° W 17:51:44 10° N
Cosmos 1943 Rocket 3.6 17:43:28 10° W 17:48:28 33° NNW 17:52:45 13° NE
Cosmos 1025 Rocket 4.1 17:51:35 10° N 17:54:31 37° NNE 17:54:31 37° NNE
Timation 1 Rocket 4.3 17:50:35 10° NW 17:56:38 76° SW 17:57:23 66° S
Resurs 01 Rocket 3.1 17:57:11 26° SW 17:58:39 33° W 18:02:41 10° NNW
Cosmos 1975 Rocket 3.6 17:55:57 10° NNW 17:59:43 56° WNW 17:59:43 56° WNW
Lacrosse 4 Rocket 2.8 17:56:32 10° WNW 18:00:34 33° N 18:00:42 33° N
Cosmos 2278 Rocket 3.4 17:58:09 10° NW 18:03:14 32° NNE 18:04:39 29° NE
Cosmos 1733 Rocket 4.2 18:01:58 17° SW 18:05:00 41° WNW 18:09:10 10° N
Cosmos 2227 Rocket 4.3 18:01:48 10° NW 18:05:55 21° WSW 18:09:26 12° SW
Lacrosse 5 3.3 18:02:33 10° WSW 18:04:57 27° SW 18:04:57 27° SW
USA 234 3.5 18:10:42 49° S 18:11:10 49° SSW 18:17:31 10° W
ERS-1 Rocket 3.1 18:13:55 71° WNW 18:13:55 71° WNW 18:18:40 10° NNW
Landsat 7 4.5 18:20:24 52° W 18:20:24 52° W 18:24:47 10° NNW
NOSS 2-3 (E) 4.4 18:15:18 10° W 18:20:28 69° N 18:21:00 65° NNE
Cosmos 1437 Rocket 4.4 18:19:16 10° NNW 18:22:03 34° WNW 18:22:03 34° WNW
Cosmos 1867 3.9 18:19:28 10° WNW 18:24:13 61° W 18:24:13 61° W
Cosmos 1244 Rocket 4.4 18:23:30 10° NNW 18:29:38 83° NE 18:29:38 83° NE
Cosmos 1809 Rocket 4.4 18:24:16 10° NNW 18:30:00 75° NNE 18:30:00 75° NNE
CENTAUR R/B 4.4 18:26:35 10° WNW 18:33:10 30° WSW 18:36:19 24° SSW
NOSS 2-3 (D) 4.4 18:30:33 10° W 18:35:38 68° N 18:35:38 68° N
CZ-2C R/B 3.2 18:32:05 10° NNE 18:37:31 57° WNW 18:38:36 48° WSW
Meteor 2-21 4.5 18:32:10 10° NNW 18:37:42 71° NNE 18:37:42 71° NNE
USA 229 DEB 3.8 18:32:29 10° WNW 18:39:25 74° N 18:40:22 65° ENE
USA 229 3.8 18:32:35 10° WNW 18:39:31 74° N 18:40:27 65° ENE
Cosmos 1844 Rocket 3.1 18:34:38 10° NW 18:39:32 59° N 18:39:32 59° N
Cosmos 2263 Rocket 2.8 18:38:34 10° NW 18:43:32 49° W 18:43:32 49° W
Cosmos 2056 Rocket 4.3 18:40:43 10° NNW 18:44:54 49° N 18:44:54 49° N
Cosmos 1745 Rocket 4.2 18:39:54 10° NNW 18:45:29 62° NNE 18:45:29 62° NNE
NOSS 3-1 (A) 3.8 18:39:49 10° W 18:46:18 72° N 18:47:16 64° NE
ATLAS 3B R/B 3.9 18:43:38 10° WNW 18:49:16 29° WSW 18:49:57 29° SW
SPOT 5 4.0 18:54:28 44° WNW 18:54:28 44° WNW 18:58:29 10° NNW
Cosmos 2369 Rocket 3.8 18:49:38 10° WNW 18:54:39 30° N 18:57:22 21° NE
Terra 3.2 19:01:46 37° NW 19:01:46 37° NW 19:04:56 10° NNW
SeaSat 1 4.1 19:21:29 29° N 19:21:29 29° N 19:25:09 10° NW
Mayak 1.7 19:24:08 10° NNE 19:24:21 11° NNE 19:24:21 11° NNE
Cosmos 1943 Rocket 3.7 19:28:51 10° NW 19:33:40 29° N 19:34:17 29° NNE
NOSS 3-1 (C) 4.0 19:30:06 10° WNW 19:35:47 68° WNW 19:35:47 68° WNW
Lacrosse 4 Rocket 4.0 19:35:35 10° NW 19:37:00 20° NW 19:37:00 20° NW
Cosmos 2278 Rocket 3.3 19:42:43 10° NW 19:46:30 40° NNW 19:46:30 40° NNW
SL-16 R/B 4.0 20:03:27 29° NE 20:03:40 29° NE 20:08:54 10° NNW
Cosmos 1697 Rocket 4.5 20:09:25 25° NNE 20:09:25 25° NNE 20:11:54 10° NE
Cosmos 1980 Rocket 4.1 20:20:19 23° NNE 20:20:19 23° NNE 20:22:25 10° NE
Cosmos 2369 Rocket 3.7 20:34:51 10° NW 20:39:09 34° N 20:39:09 34° N
Cosmos 2344 4.1 20:46:22 54° ENE 20:46:22 54° ENE 20:53:24 10° ENE
SL-16 R/B 4.0 20:58:04 25° NE 20:58:04 25° NE 21:00:24 10° NE
Mayak 1.7 21:00:07 10° N 21:00:56 14° N 21:00:56 14° N
ATLAS 2AS CENTAUR R/B 3.5 21:14:23 52° ENE 21:14:23 52° ENE 21:19:57 10° ENE
Resurs 1-4 Rocket 4.5 21:11:03 10° NE 21:12:50 16° ENE 21:12:50 16° ENE
Cosmos 1943 Rocket 4.0 21:13:15 10° NW 21:15:48 26° NNW 21:15:48 26° NNW
Cosmos 2322 Rocket 3.7 21:34:21 33° NNE 21:34:21 33° NNE 21:37:31 10° NE
Cosmos 2278 Rocket 4.4 21:27:00 10° NW 21:28:20 17° NW 21:28:20 17° NW
Cosmos 2219 Rocket 4.0 21:38:09 26° NE 21:38:09 26° NE 21:40:34 10° NE
CZ-4C R/B 4.3 21:41:53 21° ENE 21:41:53 21° ENE 21:44:16 10° ENE
Cosmos 2333 Rocket 3.9 21:42:32 27° NE 21:42:32 27° NE 21:45:07 10° NE
Cosmos 2237 Rocket 4.2 21:45:15 21° ENE 21:45:15 21° ENE 21:47:24 10° NE
SL-16 R/B 3.4 21:48:32 47° N 21:48:32 47° N 21:52:53 10° NNW
Cosmos 1697 Rocket 4.3 21:51:07 30° NNW 21:51:31 30° N 21:56:31 10° NE
Cosmos 2360 Rocket 3.6 21:56:25 34° NNE 21:56:25 34° NNE 21:59:38 10° NE
Cosmos 1980 Rocket 3.7 22:02:03 32° N 22:02:03 32° N 22:06:53 10° NE
ADEOS II 4.0 22:16:37 10° NE 22:20:02 22° ENE 22:20:02 22° ENE
Cosmos 2369 Rocket 4.2 22:19:13 10° NW 22:20:56 20° NW 22:20:56 20° NW
NOSS 3-4 (A) 4.1 22:30:56 57° ENE 22:30:56 57° ENE 22:36:42 10° E
NOSS 3-4 (C) 4.1 22:31:00 58° ENE 22:31:00 58° ENE 22:36:48 10° E
SL-16 R/B 3.8 22:34:45 28° E 22:34:45 28° E 22:38:13 10° NE
COSMOS 2428 3.6 22:40:26 46° NNE 22:40:26 46° NNE 22:44:26 10° NE
SL-16 R/B 3.4 22:39:54 36° NNW 22:39:54 36° NNW 22:44:49 10° NE
COSMOS 2455 3.6 22:42:54 48° N 22:43:14 48° N 22:49:05 10° E
CZ-2D R/B 3.2 22:42:53 10° NNE 22:46:26 41° NE 22:46:26 41° NE
Resurs 1-4 Rocket 3.0 22:50:09 10° NNE 22:53:56 46° NE 22:53:56 46° NE
Cosmos 2344 3.9 22:56:20 49° WNW 22:58:58 76° N 23:09:26 10° E
ATLAS 2AS CENTAUR R/B 3.0 23:01:48 53° WNW 23:03:54 78° NNE 23:11:24 10° ESE
H-2A R/B 4.4 23:07:38 18° NNW 23:07:38 18° NNW 23:08:50 10° NNW
Nadezhda 3 Rocket 4.2 23:12:02 63° E 23:12:02 63° E 23:18:20 10° NNE
IRS-1D 4.4 23:07:16 10° NNE 23:11:05 45° NE 23:11:05 45° NE
Cosmos 2322 Rocket 3.5 23:16:08 31° NNW 23:16:56 32° NNW 23:22:04 10° NE
ARIANE 5 R/B 3.6 23:12:21 10° NNE 23:16:36 37° E 23:16:36 37° E
Cosmos 2219 Rocket 2.8 23:19:51 50° N 23:19:51 50° N 23:24:42 10° NE
Cosmos 2333 Rocket 2.8 23:24:32 49° NNW 23:24:32 49° NNW 23:29:34 10° NE
Cosmos 2237 Rocket 2.5 23:27:04 62° NNE 23:27:04 62° NNE 23:31:49 10° NE
ATLAS CENTAUR R/B 3.3 23:28:24 28° ENE 23:28:24 28° ENE 23:30:29 10° ENE
CZ-4C R/B 2.5 23:27:03 75° ENE 23:27:03 75° ENE 23:33:20 10° ENE
SL-16 R/B 4.0 23:33:37 23° NW 23:33:37 23° NW 23:36:26 10° NNW
Cosmos 2181 Rocket 4.5 23:34:33 50° NW 23:34:33 50° NW 23:40:13 10° N
Cosmos 1697 Rocket 4.2 23:32:48 14° NW 23:36:59 33° NNE 23:42:06 10° E
IRS-P3 4.4 23:33:06 10° NNE 23:37:58 66° ENE 23:37:58 66° ENE
Cosmos 2360 Rocket 3.4 23:38:09 32° NNW 23:38:54 33° NNW 23:44:01 10° NE
RESURS DK-1 4.4 23:38:56 23° N 23:39:00 23° N 23:42:25 10° ENE
NOSS 0 Rocket 4.0 23:39:35 69° NW 23:39:35 69° NW 23:45:44 10° NE
Meteor 2-10 Rocket 4.0 23:41:42 53° E 23:41:42 53° E 23:46:18 10° NNE
Cosmos 1934 Rocket 4.0 23:37:26 10° NNW 23:43:07 69° NW 23:43:07 69° NW
IDEFIX/ARIANE 42P 4.0 23:41:57 10° NNE 23:46:39 32° E 23:48:35 25° SE
Cosmos 1980 Rocket 3.8 23:43:47 17° NW 23:47:21 31° NNE 23:52:19 10° ENE
